Location: Cantaing
(50.1487°N, 3.1675°E)
Time: 09:23:01
(UTC+00:00)

TIMED - Pass Details

Date: 14 January 2026
Orbit: 581 x 584 km, 74.1° (Epoch: 11 February)

Event Time Altitude Azimuth Distance (km) Brightness Sun altitude
Rises 05:52:05 0° 206° (SSW) 2,790 7.8 -16.8°
Reaches altitude 10° 05:54:17 10° 207° (SSW) 1,895 6.9 -16.5°
Maximum altitude 05:58:31 78° 295° (WNW) 601 4.3 -15.8°
Drops below altitude 10° 06:02:47 10° 22° (NNE) 1,912 7.1 -15.2°
Sets 06:05:01 0° 23° (NNE) 2,817 8.0 -14.8°
